SAS277 LGAV-EKCH

Flight info

Callsign SAS277
Flight time 3h 5m
Altitude 34000
Route KRO T162 KOROS UN133 PEREN UL863 EVIVI DCT OKANA DCT PARAK DCT AMRAX DCT REGLI L617 ADVAB L619 DENKO L996 GOSOT DCT ROE M743 TIDVU
Aircraft A321/M-SDE3FGIJ1RWXY/LB1

Departure

Time 2026-04-26 13:19
Airport Athens Eleftherios Venizelos International Airport (LGAV)

Arrival

Time 2026-04-26 16:24
Airport Copenhagen Kastrup Airport (EKCH)
Time Latitude Longitude Altitude Speed Heading
2026-04-26 12:48 37.94139 23.95337 302 ft 0 kts 218°
2026-04-26 13:07 37.94158 23.95357 301 ft 4 kts 222°
2026-04-26 13:07 37.94178 23.95380 302 ft 4 kts 229°
2026-04-26 13:08 37.94194 23.95407 303 ft 4 kts 243°
2026-04-26 13:08 37.94200 23.95437 300 ft 4 kts 289°
2026-04-26 13:08 37.94196 23.95449 302 ft 1 kts 307°
2026-04-26 13:08 37.94195 23.95449 302 ft 0 kts 307°
2026-04-26 13:11 37.94198 23.95445 302 ft 1 kts 307°
2026-04-26 13:11 37.94203 23.95437 300 ft 2 kts 307°
2026-04-26 13:11 37.94211 23.95423 302 ft 3 kts 307°
2026-04-26 13:11 37.94232 23.95388 301 ft 6 kts 307°
2026-04-26 13:12 37.94265 23.95333 301 ft 9 kts 306°
2026-04-26 13:12 37.94308 23.95260 301 ft 12 kts 306°
2026-04-26 13:12 37.94361 23.95168 302 ft 14 kts 306°
2026-04-26 13:12 37.94425 23.95060 303 ft 16 kts 307°
2026-04-26 13:13 37.94498 23.94937 305 ft 19 kts 307°
2026-04-26 13:13 37.94581 23.94800 301 ft 20 kts 307°
2026-04-26 13:13 37.94670 23.94650 304 ft 22 kts 300°
2026-04-26 13:13 37.94601 23.94507 304 ft 21 kts 224°
2026-04-26 13:14 37.94480 23.94386 302 ft 23 kts 216°
2026-04-26 13:14 37.94348 23.94259 302 ft 25 kts 217°
2026-04-26 13:14 37.94206 23.94122 302 ft 27 kts 217°
2026-04-26 13:14 37.94050 23.93977 303 ft 28 kts 216°
2026-04-26 13:15 37.93894 23.93827 301 ft 28 kts 216°
2026-04-26 13:15 37.93735 23.93681 300 ft 28 kts 216°
2026-04-26 13:15 37.93577 23.93533 303 ft 28 kts 218°
2026-04-26 13:15 37.93475 23.93432 301 ft 28 kts 217°
2026-04-26 13:16 37.93266 23.93233 300 ft 28 kts 216°
2026-04-26 13:16 37.93113 23.93089 301 ft 28 kts 217°
2026-04-26 13:16 37.92957 23.92938 300 ft 28 kts 218°
2026-04-26 13:16 37.92806 23.92797 301 ft 27 kts 216°
2026-04-26 13:17 37.92510 23.92515 301 ft 26 kts 217°
2026-04-26 13:17 37.92364 23.92377 302 ft 26 kts 216°
2026-04-26 13:18 37.92080 23.92109 302 ft 23 kts 217°
2026-04-26 13:18 37.92062 23.91966 303 ft 19 kts 331°
2026-04-26 13:18 37.92307 23.92047 304 ft 31 kts 36°
2026-04-26 13:19 37.92715 23.92435 302 ft 112 kts 37°
2026-04-26 13:19 37.93524 23.93200 294 ft 175 kts 37°
2026-04-26 13:19 37.94560 23.94239 748 ft 195 kts 39°
2026-04-26 13:19 37.95642 23.95261 1636 ft 193 kts 36°
2026-04-26 13:20 37.96795 23.96294 2237 ft 214 kts 34°
2026-04-26 13:20 37.98076 23.97435 2875 ft 232 kts 33°
2026-04-26 13:20 37.99420 23.98640 3694 ft 241 kts 33°
2026-04-26 13:20 38.00796 23.99887 4569 ft 246 kts 33°
2026-04-26 13:21 38.02198 24.01169 5373 ft 251 kts 33°
2026-04-26 13:21 38.03142 24.02035 5946 ft 254 kts 33°
2026-04-26 13:21 38.05070 24.03815 7016 ft 259 kts 33°
2026-04-26 13:21 38.06540 24.05176 7853 ft 263 kts 34°
2026-04-26 13:22 38.08020 24.06568 8733 ft 268 kts 38°
2026-04-26 13:22 38.09203 24.08419 9535 ft 275 kts 64°
2026-04-26 13:22 38.09691 24.10773 10133 ft 280 kts 89°
2026-04-26 13:22 38.09359 24.13208 10622 ft 285 kts 109°
2026-04-26 13:23 38.08687 24.15676 10741 ft 306 kts 109°
2026-04-26 13:23 38.07962 24.18309 10872 ft 326 kts 109°
2026-04-26 13:23 38.07193 24.21096 10997 ft 344 kts 109°
2026-04-26 13:23 38.06394 24.23998 11124 ft 361 kts 109°
2026-04-26 13:24 38.05550 24.27076 11262 ft 376 kts 109°
2026-04-26 13:24 38.04684 24.30248 11657 ft 383 kts 108°
2026-04-26 13:24 38.03808 24.33451 12153 ft 386 kts 108°
2026-04-26 13:24 38.02922 24.36682 12679 ft 388 kts 108°
2026-04-26 13:25 38.02087 24.39945 13205 ft 390 kts 101°
2026-04-26 13:25 38.01895 24.43347 13733 ft 387 kts 82°
2026-04-26 13:25 38.02551 24.46635 14217 ft 385 kts 64°
2026-04-26 13:25 38.03982 24.49486 14698 ft 383 kts 46°
2026-04-26 13:26 38.06023 24.51628 15166 ft 381 kts 28°
2026-04-26 13:26 38.08468 24.52903 15631 ft 382 kts 15°
2026-04-26 13:26 38.11024 24.53861 16094 ft 384 kts 15°
2026-04-26 13:26 38.13591 24.54820 16542 ft 386 kts 15°
2026-04-26 13:27 38.16176 24.55787 17003 ft 388 kts 15°
2026-04-26 13:27 38.18770 24.56759 17436 ft 390 kts 15°
2026-04-26 13:27 38.21379 24.57738 17869 ft 392 kts 16°
2026-04-26 13:27 38.23968 24.58715 18287 ft 393 kts 16°
2026-04-26 13:28 38.26638 24.59724 18617 ft 396 kts 16°
2026-04-26 13:28 38.29251 24.60709 18950 ft 399 kts 16°
2026-04-26 13:28 38.31920 24.61719 19302 ft 401 kts 16°
2026-04-26 13:28 38.34598 24.62735 19662 ft 402 kts 16°
2026-04-26 13:29 38.37288 24.63755 20023 ft 404 kts 15°
2026-04-26 13:29 38.39112 24.64444 20267 ft 406 kts 15°
2026-04-26 13:29 38.42711 24.65805 20742 ft 408 kts 15°
2026-04-26 13:29 38.45440 24.66839 21087 ft 410 kts 15°
2026-04-26 13:30 38.48187 24.67883 21415 ft 413 kts 15°
2026-04-26 13:30 38.50946 24.68935 21756 ft 415 kts 15°
2026-04-26 13:30 38.53719 24.69994 22087 ft 417 kts 15°
2026-04-26 13:30 38.56504 24.71057 22430 ft 419 kts 15°
2026-04-26 13:31 38.59301 24.72124 22756 ft 421 kts 15°
2026-04-26 13:31 38.62113 24.73196 23083 ft 423 kts 15°
2026-04-26 13:31 38.64938 24.74271 23399 ft 425 kts 15°
2026-04-26 13:31 38.67775 24.75354 23679 ft 427 kts 15°
2026-04-26 13:32 38.70625 24.76448 23946 ft 429 kts 15°
2026-04-26 13:32 38.73492 24.77548 24224 ft 430 kts 15°
2026-04-26 13:32 38.76362 24.78650 24500 ft 432 kts 15°
2026-04-26 13:32 38.78273 24.79383 24688 ft 433 kts 15°
2026-04-26 13:33 38.81161 24.80490 24967 ft 434 kts 15°
2026-04-26 13:33 38.84054 24.81597 25236 ft 435 kts 15°
2026-04-26 13:33 38.86970 24.82712 25481 ft 437 kts 15°
2026-04-26 13:33 38.89888 24.83830 25746 ft 439 kts 15°
2026-04-26 13:34 38.92819 24.84958 26007 ft 440 kts 15°
2026-04-26 13:34 38.95755 24.86091 26259 ft 442 kts 15°
2026-04-26 13:34 38.98706 24.87231 26504 ft 443 kts 15°
2026-04-26 13:34 39.00662 24.87987 26659 ft 444 kts 15°
2026-04-26 13:35 39.04644 24.89448 26931 ft 445 kts
2026-04-26 13:35 39.07713 24.89947 27110 ft 445 kts
2026-04-26 13:35 39.10798 24.89764 27298 ft 444 kts 351°
2026-04-26 13:35 39.13812 24.88917 27489 ft 444 kts 342°
2026-04-26 13:36 39.16678 24.87440 27691 ft 444 kts 334°
2026-04-26 13:36 39.19458 24.85715 27961 ft 443 kts 334°
2026-04-26 13:36 39.22235 24.83992 28245 ft 442 kts 334°
2026-04-26 13:36 39.25002 24.82275 28530 ft 441 kts 334°
2026-04-26 13:37 39.27769 24.80555 28807 ft 440 kts 334°
2026-04-26 13:37 39.30525 24.78838 29080 ft 439 kts 334°
2026-04-26 13:37 39.33278 24.77121 29358 ft 438 kts 334°
2026-04-26 13:37 39.36021 24.75411 29635 ft 438 kts 334°
2026-04-26 13:38 39.38762 24.73705 29912 ft 437 kts 334°
2026-04-26 13:38 39.41494 24.72002 30168 ft 436 kts 333°
2026-04-26 13:38 39.44185 24.70323 30397 ft 435 kts 333°
2026-04-26 13:38 39.46911 24.68618 30625 ft 434 kts 333°
2026-04-26 13:39 39.49625 24.66918 30862 ft 433 kts 333°
2026-04-26 13:39 39.52341 24.65214 31081 ft 432 kts 333°
2026-04-26 13:39 39.55047 24.63518 31305 ft 432 kts 333°
2026-04-26 13:39 39.57752 24.61825 31529 ft 431 kts 333°
2026-04-26 13:40 39.60446 24.60136 31748 ft 430 kts 333°
2026-04-26 13:40 39.63135 24.58444 31970 ft 429 kts 333°
2026-04-26 13:40 39.65817 24.56755 32202 ft 428 kts 333°
2026-04-26 13:40 39.68495 24.55072 32411 ft 427 kts 333°
2026-04-26 13:41 39.71169 24.53393 32632 ft 426 kts 333°
2026-04-26 13:41 39.73838 24.51712 32851 ft 426 kts 333°
2026-04-26 13:41 39.76502 24.50031 33056 ft 425 kts 333°
2026-04-26 13:41 39.79124 24.48374 33260 ft 424 kts 333°
2026-04-26 13:42 39.81779 24.46692 33472 ft 424 kts 333°
2026-04-26 13:42 39.84426 24.45013 33689 ft 423 kts 333°
2026-04-26 13:42 39.87069 24.43338 33884 ft 422 kts 333°
2026-04-26 13:42 39.89709 24.41665 34006 ft 423 kts 333°
2026-04-26 13:43 39.92367 24.39979 34023 ft 426 kts 333°
2026-04-26 13:43 39.97728 24.36572 34024 ft 430 kts 332°
2026-04-26 13:44 40.03102 24.33155 34019 ft 430 kts 332°
2026-04-26 13:44 40.08477 24.29730 34013 ft 430 kts 332°
2026-04-26 13:45 40.13847 24.26300 34015 ft 430 kts 332°
2026-04-26 13:45 40.19226 24.22858 34017 ft 430 kts 332°
2026-04-26 13:46 40.24610 24.19405 34020 ft 431 kts 332°
2026-04-26 13:46 40.29991 24.15945 34023 ft 431 kts 332°
2026-04-26 13:47 40.35379 24.12486 34026 ft 431 kts 332°
2026-04-26 13:47 40.40736 24.09032 34027 ft 431 kts 332°
2026-04-26 13:48 40.46125 24.05550 34033 ft 431 kts 332°
2026-04-26 13:48 40.51507 24.02074 34031 ft 431 kts 332°
2026-04-26 13:49 40.56886 23.98591 34021 ft 431 kts 332°
2026-04-26 13:49 40.62275 23.95106 34022 ft 431 kts 332°
2026-04-26 13:50 40.67691 23.91707 34030 ft 431 kts 332°
2026-04-26 13:50 40.73122 23.88331 34022 ft 431 kts 332°
2026-04-26 13:51 40.78502 23.84954 34016 ft 431 kts 332°
2026-04-26 13:51 40.83905 23.81542 34009 ft 431 kts 332°
2026-04-26 13:52 40.89310 23.78125 34007 ft 430 kts 332°
2026-04-26 13:52 40.94709 23.74700 34005 ft 430 kts 332°
2026-04-26 13:53 41.00106 23.71268 34002 ft 430 kts 332°
2026-04-26 13:53 41.05508 23.67836 34001 ft 430 kts 332°
2026-04-26 13:54 41.10909 23.64403 34000 ft 430 kts 332°
2026-04-26 13:54 41.16311 23.60957 34012 ft 430 kts 332°
2026-04-26 13:55 41.23495 23.56362 33998 ft 431 kts 332°
2026-04-26 13:56 41.32475 23.50590 34003 ft 431 kts 331°
2026-04-26 13:56 41.37875 23.47105 34018 ft 431 kts 331°
2026-04-26 13:57 41.43277 23.43621 34015 ft 431 kts 331°
2026-04-26 13:57 41.48637 23.40130 34012 ft 431 kts 331°
2026-04-26 13:58 41.54030 23.36602 34017 ft 432 kts 331°
2026-04-26 13:58 41.59422 23.33072 34034 ft 431 kts 331°
2026-04-26 13:59 41.64814 23.29542 34033 ft 431 kts 331°
2026-04-26 13:59 41.70206 23.26007 34032 ft 431 kts 331°
2026-04-26 14:00 41.80975 23.18920 34040 ft 431 kts 331°
2026-04-26 14:01 41.86317 23.15391 34059 ft 431 kts 331°
2026-04-26 14:01 41.91699 23.11834 34054 ft 431 kts 331°
2026-04-26 14:02 41.97082 23.08276 34045 ft 430 kts 332°
2026-04-26 14:02 42.02458 23.04718 34045 ft 430 kts 332°
2026-04-26 14:03 42.07825 23.01146 34051 ft 430 kts 332°
2026-04-26 14:03 42.13197 22.97562 34048 ft 431 kts 332°
2026-04-26 14:04 42.18570 22.93982 34048 ft 431 kts 332°
2026-04-26 14:04 42.23940 22.90385 34049 ft 431 kts 332°
2026-04-26 14:05 42.29275 22.86804 34059 ft 431 kts 332°
2026-04-26 14:05 42.34687 22.83169 34040 ft 432 kts 332°
2026-04-26 14:06 42.40040 22.79569 34058 ft 432 kts 332°
2026-04-26 14:06 42.45422 22.75937 34058 ft 433 kts 332°
2026-04-26 14:07 42.50818 22.72302 34061 ft 434 kts 332°
2026-04-26 14:07 42.56229 22.68651 34069 ft 434 kts 332°
2026-04-26 14:08 42.61634 22.64985 34066 ft 434 kts 332°
2026-04-26 14:08 42.67039 22.61309 34072 ft 435 kts 332°
2026-04-26 14:09 42.72448 22.57629 34090 ft 435 kts 332°
2026-04-26 14:09 42.77859 22.53945 34086 ft 435 kts 332°
2026-04-26 14:10 42.83278 22.50240 34075 ft 435 kts 332°
2026-04-26 14:10 42.88701 22.46541 34078 ft 436 kts 332°
2026-04-26 14:11 42.96856 22.41009 34092 ft 436 kts 332°
2026-04-26 14:11 43.02256 22.37327 34090 ft 437 kts 332°
2026-04-26 14:12 43.07694 22.33605 34079 ft 437 kts 332°
2026-04-26 14:12 43.13136 22.29878 34077 ft 437 kts 332°
2026-04-26 14:13 43.21297 22.24273 34080 ft 438 kts 332°
2026-04-26 14:14 43.26756 22.20522 34094 ft 438 kts 332°
2026-04-26 14:14 43.32191 22.16778 34083 ft 437 kts 332°
2026-04-26 14:15 43.37623 22.13019 34067 ft 438 kts 332°
2026-04-26 14:15 43.43068 22.09248 34063 ft 439 kts 332°
2026-04-26 14:16 43.48521 22.05470 34080 ft 438 kts 332°
2026-04-26 14:16 43.53933 22.01703 34077 ft 439 kts 332°
2026-04-26 14:17 43.59431 21.97875 34072 ft 440 kts 332°
2026-04-26 14:17 43.64863 21.94087 34098 ft 439 kts 331°
2026-04-26 14:18 43.70316 21.90268 34086 ft 439 kts 332°
2026-04-26 14:18 43.75764 21.86448 34077 ft 439 kts 332°
2026-04-26 14:19 43.81231 21.82612 34071 ft 440 kts 332°
2026-04-26 14:19 43.86677 21.78777 34087 ft 439 kts 332°
2026-04-26 14:20 43.92083 21.74968 34083 ft 438 kts 332°
2026-04-26 14:20 43.97520 21.71119 34097 ft 438 kts 332°
2026-04-26 14:21 44.02949 21.67270 34099 ft 437 kts 331°
2026-04-26 14:21 44.07442 21.64082 34088 ft 436 kts 331°
2026-04-26 14:22 44.12854 21.60236 34078 ft 437 kts 332°
2026-04-26 14:22 44.18267 21.56379 34085 ft 437 kts 331°
2026-04-26 14:23 44.23676 21.52516 34092 ft 436 kts 331°
2026-04-26 14:23 44.29045 21.48676 34086 ft 436 kts 331°
2026-04-26 14:24 44.34459 21.44795 34108 ft 437 kts 331°
2026-04-26 14:24 44.39863 21.40919 34081 ft 436 kts 331°
2026-04-26 14:25 44.45264 21.37030 34082 ft 436 kts 331°
2026-04-26 14:25 44.50654 21.33136 34083 ft 438 kts 331°
2026-04-26 14:26 44.56079 21.29217 34106 ft 438 kts 331°
2026-04-26 14:26 44.61503 21.25292 34100 ft 438 kts 331°
2026-04-26 14:27 44.66919 21.21355 34087 ft 438 kts 331°
2026-04-26 14:27 44.72318 21.17422 34092 ft 439 kts 331°
2026-04-26 14:28 44.77752 21.13465 34101 ft 439 kts 331°
2026-04-26 14:28 44.83178 21.09509 34097 ft 439 kts 331°
2026-04-26 14:29 44.88603 21.05538 34097 ft 439 kts 331°
2026-04-26 14:29 44.94029 21.01551 34103 ft 439 kts 330°
2026-04-26 14:30 44.99441 20.97566 34116 ft 438 kts 331°
2026-04-26 14:30 45.04858 20.93580 34122 ft 439 kts 331°
2026-04-26 14:31 45.10253 20.89601 34112 ft 440 kts 330°
2026-04-26 14:31 45.15678 20.85591 34118 ft 439 kts 330°
2026-04-26 14:32 45.21095 20.81568 34107 ft 439 kts 330°
2026-04-26 14:32 45.26485 20.77553 34123 ft 440 kts 330°
2026-04-26 14:33 45.31906 20.73510 34123 ft 440 kts 330°
2026-04-26 14:33 45.37332 20.69460 34121 ft 441 kts 330°
2026-04-26 14:34 45.42766 20.65398 34124 ft 441 kts 330°
2026-04-26 14:34 45.48201 20.61322 34119 ft 441 kts 330°
2026-04-26 14:35 45.53620 20.57249 34143 ft 441 kts 330°
2026-04-26 14:35 45.59009 20.53194 34142 ft 441 kts 330°
2026-04-26 14:36 45.64432 20.49104 34130 ft 441 kts 330°
2026-04-26 14:36 45.69864 20.44992 34138 ft 442 kts 330°
2026-04-26 14:37 45.75297 20.40878 34147 ft 442 kts 330°
2026-04-26 14:37 45.80726 20.36758 34148 ft 441 kts 330°
2026-04-26 14:38 45.86152 20.32626 34154 ft 441 kts 330°
2026-04-26 14:38 45.91576 20.28484 34158 ft 441 kts 330°
2026-04-26 14:39 45.96986 20.24347 34155 ft 441 kts 330°
2026-04-26 14:39 46.02395 20.20198 34169 ft 441 kts 329°
2026-04-26 14:40 46.07799 20.16035 34160 ft 440 kts 329°
2026-04-26 14:40 46.13193 20.11886 34152 ft 439 kts 329°
2026-04-26 14:41 46.18805 20.08527 34155 ft 443 kts 343°
2026-04-26 14:41 46.24791 20.06362 34164 ft 443 kts 342°
2026-04-26 14:42 46.30781 20.04177 34158 ft 444 kts 342°
2026-04-26 14:42 46.36773 20.01984 34149 ft 444 kts 342°
2026-04-26 14:43 46.42777 19.99775 34148 ft 444 kts 342°
2026-04-26 14:43 46.48733 19.97573 34162 ft 445 kts 342°
2026-04-26 14:44 46.54734 19.95364 34155 ft 445 kts 342°
2026-04-26 14:44 46.60742 19.93156 34163 ft 445 kts 342°
2026-04-26 14:45 46.66742 19.90930 34159 ft 445 kts 342°
2026-04-26 14:45 46.72748 19.88692 34174 ft 444 kts 342°
2026-04-26 14:46 46.78727 19.86472 34171 ft 443 kts 342°
2026-04-26 14:46 46.84704 19.84252 34156 ft 443 kts 342°
2026-04-26 14:47 46.90637 19.82031 34154 ft 443 kts 342°
2026-04-26 14:47 46.96599 19.79797 34167 ft 442 kts 342°
2026-04-26 14:48 47.02545 19.77560 34169 ft 440 kts 342°
2026-04-26 14:48 47.08465 19.75328 34171 ft 439 kts 342°
2026-04-26 14:49 47.14380 19.73096 34165 ft 439 kts 342°
2026-04-26 14:49 47.20298 19.70862 34159 ft 439 kts 342°
2026-04-26 14:50 47.26227 19.68612 34166 ft 440 kts 342°
2026-04-26 14:50 47.32150 19.66356 34169 ft 440 kts 342°
2026-04-26 14:51 47.38078 19.64097 34202 ft 440 kts 342°
2026-04-26 14:51 47.43965 19.61853 34199 ft 438 kts 342°
2026-04-26 14:52 47.49850 19.59607 34192 ft 436 kts 342°
2026-04-26 14:52 47.55705 19.57358 34182 ft 434 kts 342°
2026-04-26 14:53 47.61551 19.55105 34179 ft 434 kts 342°
2026-04-26 14:53 47.67398 19.52857 34194 ft 433 kts 342°
2026-04-26 14:54 47.73210 19.50610 34198 ft 430 kts 342°
2026-04-26 14:54 47.78998 19.48366 34192 ft 429 kts 342°
2026-04-26 14:55 47.84780 19.46131 34190 ft 429 kts 342°
2026-04-26 14:55 47.90480 19.43918 34185 ft 424 kts 341°
2026-04-26 14:56 47.96192 19.41684 34170 ft 424 kts 341°
2026-04-26 14:56 48.01909 19.39449 34170 ft 425 kts 341°
2026-04-26 14:57 48.07638 19.37207 34183 ft 425 kts 341°
2026-04-26 14:57 48.13086 19.33948 34202 ft 421 kts 332°
2026-04-26 14:58 48.18419 19.30317 34201 ft 421 kts 332°
2026-04-26 14:58 48.23753 19.26696 34197 ft 421 kts 332°
2026-04-26 14:59 48.29081 19.23070 34192 ft 420 kts 332°
2026-04-26 14:59 48.34413 19.19420 34191 ft 421 kts 332°
2026-04-26 15:00 48.39754 19.15759 34205 ft 422 kts 332°
2026-04-26 15:00 48.45095 19.12087 34213 ft 422 kts 332°
2026-04-26 15:01 48.50441 19.08407 34214 ft 422 kts 332°
2026-04-26 15:01 48.55785 19.04718 34209 ft 422 kts 332°
2026-04-26 15:02 48.61127 19.01029 34242 ft 422 kts 332°
2026-04-26 15:02 48.66473 18.97322 34216 ft 423 kts 332°
2026-04-26 15:03 48.71787 18.93629 34225 ft 423 kts 332°
2026-04-26 15:03 48.77136 18.89895 34223 ft 423 kts 332°
2026-04-26 15:04 48.82492 18.86152 34219 ft 423 kts 332°
2026-04-26 15:04 48.87843 18.82406 34250 ft 423 kts 331°
2026-04-26 15:05 48.93192 18.78649 34243 ft 422 kts 331°
2026-04-26 15:05 48.98524 18.74897 34231 ft 422 kts 331°
2026-04-26 15:06 49.03823 18.71169 34225 ft 422 kts 331°
2026-04-26 15:06 49.09161 18.67398 34229 ft 423 kts 331°
2026-04-26 15:07 49.17182 18.61719 34267 ft 423 kts 331°
2026-04-26 15:07 49.22518 18.57926 34280 ft 422 kts 331°
2026-04-26 15:08 49.26945 18.54771 34278 ft 422 kts 331°
2026-04-26 15:08 49.32272 18.50965 34259 ft 422 kts 331°
2026-04-26 15:09 49.37605 18.47132 34243 ft 423 kts 331°
2026-04-26 15:09 49.42940 18.43306 34266 ft 423 kts 331°
2026-04-26 15:10 49.47378 18.40127 34265 ft 423 kts 331°
2026-04-26 15:10 49.53610 18.35654 34269 ft 422 kts 331°
2026-04-26 15:11 49.58930 18.31806 34266 ft 422 kts 330°
2026-04-26 15:11 49.64214 18.27973 34270 ft 422 kts 330°
2026-04-26 15:12 49.69533 18.24103 34263 ft 423 kts 330°
2026-04-26 15:12 49.74856 18.20234 34263 ft 423 kts 330°
2026-04-26 15:13 49.80182 18.16347 34265 ft 423 kts 330°
2026-04-26 15:13 49.85508 18.12453 34266 ft 423 kts 330°
2026-04-26 15:14 49.90834 18.08553 34271 ft 423 kts 330°
2026-04-26 15:14 49.96145 18.04641 34294 ft 422 kts 330°
2026-04-26 15:15 50.01445 18.00733 34288 ft 421 kts 330°
2026-04-26 15:15 50.06893 17.97327 34284 ft 423 kts 335°
2026-04-26 15:16 50.12413 17.94151 34281 ft 422 kts 335°
2026-04-26 15:16 50.17886 17.90998 34278 ft 422 kts 335°
2026-04-26 15:17 50.22492 17.88326 34298 ft 421 kts 335°
2026-04-26 15:17 50.28898 17.84599 34287 ft 419 kts 335°
2026-04-26 15:18 50.34325 17.81434 34283 ft 419 kts 335°
2026-04-26 15:18 50.39793 17.78233 34266 ft 420 kts 335°
2026-04-26 15:19 50.45263 17.75032 34296 ft 420 kts 335°
2026-04-26 15:19 50.50741 17.71823 34288 ft 420 kts 334°
2026-04-26 15:20 50.56223 17.68605 34288 ft 420 kts 334°
2026-04-26 15:20 50.61688 17.65376 34290 ft 419 kts 334°
2026-04-26 15:21 50.67153 17.62146 34281 ft 419 kts 334°
2026-04-26 15:21 50.72607 17.58917 34310 ft 418 kts 334°
2026-04-26 15:22 50.78009 17.55711 34288 ft 417 kts 334°
2026-04-26 15:22 50.83441 17.52472 34286 ft 417 kts 334°
2026-04-26 15:23 50.88867 17.49209 34285 ft 417 kts 334°
2026-04-26 15:23 50.94292 17.45957 34282 ft 416 kts 334°
2026-04-26 15:24 50.99718 17.42709 34306 ft 416 kts 334°
2026-04-26 15:24 51.05094 17.39475 34299 ft 415 kts 334°
2026-04-26 15:25 51.09619 17.36744 34297 ft 414 kts 334°
2026-04-26 15:25 51.15877 17.32959 34272 ft 414 kts 334°
2026-04-26 15:26 51.21273 17.29688 34282 ft 414 kts 334°
2026-04-26 15:26 51.26668 17.26406 34302 ft 415 kts 334°
2026-04-26 15:27 51.32050 17.23132 34303 ft 414 kts 334°
2026-04-26 15:27 51.37393 17.19874 34289 ft 413 kts 334°
2026-04-26 15:28 51.42749 17.16587 34290 ft 412 kts 334°
2026-04-26 15:28 51.48113 17.13279 34299 ft 412 kts 334°
2026-04-26 15:29 51.53465 17.09979 34298 ft 409 kts 333°
2026-04-26 15:30 51.64091 17.03419 34274 ft 410 kts 333°
2026-04-26 15:30 51.69416 17.00125 34277 ft 410 kts 333°
2026-04-26 15:31 51.77376 16.95170 34280 ft 411 kts 333°
2026-04-26 15:32 51.84427 16.90516 34307 ft 406 kts 328°
2026-04-26 15:32 51.90465 16.86264 34302 ft 408 kts 333°
2026-04-26 15:33 51.95775 16.82991 34287 ft 408 kts 334°
2026-04-26 15:33 52.01082 16.79694 34280 ft 408 kts 333°
2026-04-26 15:34 52.06366 16.76297 34307 ft 409 kts 333°
2026-04-26 15:34 52.11643 16.72853 34307 ft 408 kts 333°
2026-04-26 15:35 52.16907 16.69410 34304 ft 407 kts 333°
2026-04-26 15:35 52.22169 16.65984 34300 ft 407 kts 333°
2026-04-26 15:36 52.27430 16.62550 34299 ft 407 kts 333°
2026-04-26 15:36 52.32647 16.59127 34298 ft 407 kts 333°
2026-04-26 15:37 52.37903 16.55670 34272 ft 407 kts 333°
2026-04-26 15:37 52.43169 16.52205 34271 ft 408 kts 332°
2026-04-26 15:38 52.48446 16.48710 34274 ft 409 kts 332°
2026-04-26 15:38 52.53733 16.45213 34281 ft 410 kts 333°
2026-04-26 15:39 52.59028 16.41706 34290 ft 410 kts 333°
2026-04-26 15:39 52.63434 16.38776 34322 ft 411 kts 333°
2026-04-26 15:40 52.69621 16.34642 34319 ft 410 kts 333°
2026-04-26 15:40 52.74899 16.31112 34314 ft 409 kts 333°
2026-04-26 15:41 52.80164 16.27580 34290 ft 409 kts 333°
2026-04-26 15:41 52.85445 16.24012 34290 ft 410 kts 333°
2026-04-26 15:42 52.90705 16.20457 34328 ft 411 kts 333°
2026-04-26 15:42 52.96030 16.16849 34324 ft 411 kts 333°
2026-04-26 15:43 53.01281 16.13283 34324 ft 410 kts 333°
2026-04-26 15:44 53.09214 16.07906 34318 ft 411 kts 333°
2026-04-26 15:44 53.17143 16.02501 34342 ft 410 kts 333°
2026-04-26 15:45 53.25041 15.97084 34292 ft 409 kts 333°
2026-04-26 15:46 53.32946 15.91640 34303 ft 410 kts 333°
2026-04-26 15:46 53.36444 15.89221 34307 ft 410 kts 333°
2026-04-26 15:47 53.46123 15.82511 34345 ft 411 kts 333°
2026-04-26 15:48 53.51406 15.78836 34340 ft 410 kts 333°
2026-04-26 15:48 53.56669 15.75167 34334 ft 409 kts 333°
2026-04-26 15:49 53.61929 15.71481 34320 ft 410 kts 333°
2026-04-26 15:49 53.67201 15.67782 34316 ft 411 kts 333°
2026-04-26 15:50 53.72481 15.64071 34318 ft 412 kts 333°
2026-04-26 15:50 53.77771 15.60342 34348 ft 411 kts 333°
2026-04-26 15:51 53.83047 15.56620 34332 ft 410 kts 333°
2026-04-26 15:51 53.88307 15.52894 34336 ft 410 kts 333°
2026-04-26 15:52 53.93539 15.49172 34336 ft 410 kts 333°
2026-04-26 15:52 53.98804 15.45417 34334 ft 410 kts 333°
2026-04-26 15:53 54.04062 15.41671 34345 ft 408 kts 333°
2026-04-26 15:53 54.09296 15.37939 34341 ft 408 kts 333°
2026-04-26 15:54 54.14523 15.34178 34338 ft 408 kts 333°
2026-04-26 15:54 54.18867 15.31036 34334 ft 408 kts 333°
2026-04-26 15:55 54.24937 15.26640 34333 ft 408 kts 333°
2026-04-26 15:55 54.30162 15.22858 34364 ft 408 kts 333°
2026-04-26 15:56 54.34488 15.19724 34326 ft 404 kts 333°
2026-04-26 15:56 54.39670 15.15947 34328 ft 404 kts 333°
2026-04-26 15:57 54.44846 15.12163 34298 ft 405 kts 333°
2026-04-26 15:57 54.50039 15.08351 34292 ft 406 kts 333°
2026-04-26 15:58 54.55246 15.04521 34293 ft 407 kts 333°
2026-04-26 15:58 54.60462 15.00675 34333 ft 408 kts 333°
2026-04-26 15:59 54.65631 14.96861 33750 ft 402 kts 333°
2026-04-26 15:59 54.68183 14.94981 33477 ft 396 kts 333°
2026-04-26 15:59 54.70716 14.93107 33207 ft 396 kts 333°
2026-04-26 15:59 54.73241 14.91228 32933 ft 396 kts 333°
2026-04-26 16:00 54.75766 14.89343 32663 ft 396 kts 333°
2026-04-26 16:00 54.78300 14.87453 32405 ft 396 kts 333°
2026-04-26 16:00 54.80881 14.85723 32148 ft 400 kts 339°
2026-04-26 16:00 54.83606 14.84614 31889 ft 404 kts 342°
2026-04-26 16:01 54.86354 14.83589 31627 ft 404 kts 342°
2026-04-26 16:01 54.89104 14.82558 31384 ft 405 kts 342°
2026-04-26 16:01 54.91855 14.81514 30999 ft 406 kts 342°
2026-04-26 16:01 54.94637 14.80443 29897 ft 411 kts 342°
2026-04-26 16:02 54.97434 14.79364 28886 ft 412 kts 342°
2026-04-26 16:02 55.00232 14.78282 27914 ft 412 kts 341°
2026-04-26 16:02 55.02919 14.76651 26933 ft 406 kts 330°
2026-04-26 16:02 55.04536 14.75078 26572 ft 398 kts 324°
2026-04-26 16:03 55.07344 14.71054 25757 ft 387 kts 313°
2026-04-26 16:03 55.08997 14.67403 25137 ft 381 kts 303°
2026-04-26 16:03 55.10262 14.63366 24514 ft 377 kts 298°
2026-04-26 16:03 55.11444 14.59305 23795 ft 375 kts 298°
2026-04-26 16:04 55.12629 14.55234 22938 ft 374 kts 299°
2026-04-26 16:04 55.13794 14.51236 22360 ft 366 kts 299°
2026-04-26 16:04 55.14938 14.47314 21763 ft 359 kts 299°
2026-04-26 16:04 55.16067 14.43446 21199 ft 353 kts 299°
2026-04-26 16:05 55.17159 14.39707 20639 ft 348 kts 299°
2026-04-26 16:05 55.18249 14.35967 20108 ft 343 kts 299°
2026-04-26 16:05 55.19322 14.32273 19584 ft 338 kts 299°
2026-04-26 16:05 55.20381 14.28606 19076 ft 336 kts 299°
2026-04-26 16:06 55.21429 14.24974 18581 ft 333 kts 299°
2026-04-26 16:06 55.22473 14.21358 18057 ft 331 kts 299°
2026-04-26 16:06 55.23509 14.17762 17579 ft 330 kts 299°
2026-04-26 16:06 55.24543 14.14172 17099 ft 329 kts 299°
2026-04-26 16:07 55.25568 14.10605 16627 ft 327 kts 299°
2026-04-26 16:07 55.26587 14.07048 16147 ft 325 kts 299°
2026-04-26 16:07 55.27602 14.03507 15661 ft 324 kts 299°
2026-04-26 16:07 55.28612 13.99982 15183 ft 322 kts 299°
2026-04-26 16:08 55.29613 13.96478 14686 ft 321 kts 299°
2026-04-26 16:08 55.30612 13.92978 14154 ft 319 kts 299°
2026-04-26 16:08 55.31603 13.89498 13626 ft 318 kts 298°
2026-04-26 16:08 55.32593 13.86019 13106 ft 317 kts 298°
2026-04-26 16:09 55.33574 13.82571 12625 ft 314 kts 298°
2026-04-26 16:09 55.34202 13.78941 12510 ft 320 kts 280°
2026-04-26 16:09 55.34358 13.75018 12439 ft 322 kts 277°
2026-04-26 16:09 55.34485 13.71088 12365 ft 323 kts 277°
2026-04-26 16:10 55.34599 13.67199 12129 ft 309 kts 277°
2026-04-26 16:10 55.34694 13.63611 11884 ft 281 kts 277°
2026-04-26 16:10 55.34784 13.60244 11637 ft 274 kts 277°
2026-04-26 16:10 55.34879 13.56908 11383 ft 272 kts 277°
2026-04-26 16:11 55.34976 13.53591 11138 ft 271 kts 278°
2026-04-26 16:11 55.35072 13.50291 10892 ft 270 kts 278°
2026-04-26 16:11 55.35168 13.47003 10646 ft 269 kts 278°
2026-04-26 16:11 55.35264 13.43726 10403 ft 268 kts 278°
2026-04-26 16:12 55.35359 13.40457 10157 ft 268 kts 277°
2026-04-26 16:12 55.35449 13.37191 9818 ft 266 kts 277°
2026-04-26 16:12 55.35621 13.30705 9270 ft 265 kts 277°
2026-04-26 16:13 55.35703 13.27512 9007 ft 264 kts 277°
2026-04-26 16:13 55.35786 13.24302 8743 ft 262 kts 276°
2026-04-26 16:13 55.35868 13.21107 8481 ft 261 kts 276°
2026-04-26 16:13 55.35949 13.17933 8227 ft 259 kts 276°
2026-04-26 16:14 55.36027 13.14776 7966 ft 258 kts 276°
2026-04-26 16:14 55.36105 13.11632 7709 ft 256 kts 276°
2026-04-26 16:14 55.36261 13.05403 7203 ft 253 kts 275°
2026-04-26 16:15 55.36343 13.02318 6957 ft 252 kts 275°
2026-04-26 16:15 55.36432 12.99238 6705 ft 251 kts 275°
2026-04-26 16:15 55.36525 12.96181 6436 ft 249 kts 275°
2026-04-26 16:16 55.36688 12.90122 5903 ft 247 kts 274°
2026-04-26 16:16 55.36742 12.87114 5634 ft 246 kts 274°
2026-04-26 16:16 55.36797 12.84118 5380 ft 244 kts 273°
2026-04-26 16:16 55.36853 12.81183 5109 ft 245 kts 273°
2026-04-26 16:17 55.36914 12.78169 4825 ft 248 kts 273°
2026-04-26 16:17 55.36978 12.75137 4575 ft 248 kts 272°
2026-04-26 16:17 55.37042 12.72108 4310 ft 247 kts 273°
2026-04-26 16:17 55.37106 12.69091 4043 ft 247 kts 273°
2026-04-26 16:18 55.37171 12.66079 3782 ft 246 kts 273°
2026-04-26 16:18 55.37294 12.60075 3246 ft 245 kts 273°
2026-04-26 16:19 55.37352 12.54116 2992 ft 245 kts 271°
2026-04-26 16:19 55.37367 12.51117 2991 ft 245 kts 271°
2026-04-26 16:19 55.37655 12.46198 2989 ft 245 kts 295°
2026-04-26 16:20 55.39072 12.43077 2993 ft 246 kts 314°
2026-04-26 16:20 55.41646 12.39201 2988 ft 247 kts 335°
2026-04-26 16:20 55.43343 12.38715 2991 ft 253 kts
2026-04-26 16:21 55.45068 12.39442 2993 ft 256 kts 17°
2026-04-26 16:21 55.46627 12.40994 2992 ft 260 kts 37°
2026-04-26 16:21 55.47995 12.43082 2932 ft 258 kts 39°
2026-04-26 16:21 55.49331 12.45143 2653 ft 253 kts 38°
2026-04-26 16:22 55.50631 12.47140 2337 ft 241 kts 38°
2026-04-26 16:22 55.51854 12.49019 1997 ft 225 kts 38°
2026-04-26 16:22 55.52992 12.50767 1692 ft 209 kts 38°
2026-04-26 16:22 55.54067 12.52419 1428 ft 201 kts 38°
2026-04-26 16:23 55.55069 12.53960 1167 ft 181 kts 38°
2026-04-26 16:23 55.55968 12.55345 924 ft 164 kts 38°
2026-04-26 16:23 55.56807 12.56637 694 ft 157 kts 38°
2026-04-26 16:23 55.57623 12.57892 507 ft 154 kts 36°
2026-04-26 16:24 55.58432 12.59129 259 ft 153 kts 38°
2026-04-26 16:24 55.59224 12.60362 70 ft 151 kts 37°
2026-04-26 16:24 55.59966 12.61488 19 ft 121 kts 40°
2026-04-26 16:24 55.60369 12.62115 17 ft 38 kts 42°
2026-04-26 16:25 55.60579 12.62319 20 ft 33 kts 12°
2026-04-26 16:25 55.60754 12.62390 18 ft 20 kts 17°
2026-04-26 16:25 55.60871 12.62530 17 ft 21 kts 43°
2026-04-26 16:25 55.60974 12.62694 17 ft 19 kts 43°
2026-04-26 16:26 55.61081 12.62855 17 ft 21 kts 38°
2026-04-26 16:26 55.61157 12.62964 18 ft 22 kts 40°
2026-04-26 16:26 55.61296 12.63182 18 ft 23 kts 42°
2026-04-26 16:26 55.61424 12.63382 19 ft 25 kts 41°
2026-04-26 16:27 55.61557 12.63587 17 ft 26 kts 40°
2026-04-26 16:27 55.61687 12.63791 17 ft 20 kts 43°
2026-04-26 16:27 55.61779 12.63936 17 ft 18 kts 41°
2026-04-26 16:27 55.61885 12.64079 19 ft 20 kts 30°
2026-04-26 16:28 55.62015 12.64188 17 ft 21 kts 25°
2026-04-26 16:28 55.62155 12.64305 17 ft 23 kts 26°
2026-04-26 16:28 55.62309 12.64413 17 ft 24 kts 14°
2026-04-26 16:28 55.62438 12.64471 17 ft 14 kts 14°
2026-04-26 16:29 55.62520 12.64407 17 ft 15 kts 304°
2026-04-26 16:29 55.62575 12.64275 17 ft 10 kts 330°
2026-04-26 16:29 55.62643 12.64306 17 ft 10 kts 20°
2026-04-26 16:29 55.62696 12.64337 19 ft 4 kts 18°
2026-04-26 16:30 55.62714 12.64380 17 ft 5 kts 81°
2026-04-26 16:30 55.62712 12.64430 17 ft 2 kts 98°
2026-04-26 16:30 55.62711 12.64445 17 ft 1 kts 99°
2026-04-26 16:30 55.62710 12.64449 17 ft 0 kts 100°